When you browse on this site, cookies collect data to enhance your experience and personalize the content and advertising you see.
Visit our Privacy Policy to learn more. By continuing to use the site, you agree to this use of cookies and data.
  • In Belgium
  • List of Countries
  • For 7 days
  • Water Temperature
  • Satellite Maps
  • Weather Map
  • Weather Widgets
  • user-avatar
    Login

    Hourly Weather Bethlehem

    Today, 18 December, Tuesday

    Time Temperature Precipitation Wind Pressure Humidity
    00:00 -1°C° 0 mm 5 mps 747 mmHg 67%
    01:00 0°C° 0 mm 5 mps 747 mmHg 67%
    02:00 -1°C° 0 mm 5 mps 747 mmHg 66%
    03:00 -2°C° 0 mm 5 mps 748 mmHg 65%
    04:00 -2°C° 0 mm 5 mps 749 mmHg 64%
    05:00 -4°C° 0 mm 5 mps 749 mmHg 64%
    06:00 -4°C° 0 mm 5 mps 750 mmHg 65%
    07:00 -4°C° 0 mm 3 mps 750 mmHg 68%
    08:00 -3°C° 0 mm 4 mps 751 mmHg 63%
    09:00 -4°C° 0 mm 5 mps 751 mmHg 58%
    10:00 -4°C° 0 mm 6 mps 752 mmHg 53%
    11:00 -2°C° 0 mm 5 mps 752 mmHg 50%
    12:00 -1°C° 0 mm 5 mps 752 mmHg 48%
    13:00 -1°C° 0 mm 5 mps 752 mmHg 45%
    14:00 -1°C° 0 mm 4 mps 752 mmHg 47%
    15:00 -1°C° 0 mm 4 mps 753 mmHg 49%
    16:00 -1°C° 0 mm 3 mps 753 mmHg 51%
    17:00 -2°C° 0 mm 3 mps 753 mmHg 54%
    18:00 -2°C° 0 mm 3 mps 754 mmHg 57%
    19:00 -4°C° 0 mm 3 mps 754 mmHg 60%
    20:00 -3°C° 0 mm 2 mps 754 mmHg 60%
    21:00 -3°C° 0 mm 2 mps 754 mmHg 61%
    22:00 -4°C° 0 mm 2 mps 754 mmHg 61%
    23:00 -4°C° 0 mm 2 mps 754 mmHg 61%

    Tomorrow, 19 December, Wednesday

    Time Temperature Precipitation Wind Pressure Humidity
    00:00 -2°C° 0 mm 1 mps 754 mmHg 61%
    01:00 -2°C° 0 mm 1 mps 754 mmHg 61%
    02:00 -2°C° 0 mm 1 mps 754 mmHg 61%
    03:00 -2°C° 0 mm 1 mps 754 mmHg 61%
    04:00 -2°C° 0 mm 1 mps 754 mmHg 62%
    05:00 -2°C° 0 mm 1 mps 754 mmHg 62%
    06:00 -2°C° 0 mm 1 mps 754 mmHg 62%
    07:00 -2°C° 0 mm 1 mps 754 mmHg 62%
    08:00 0°C° 0 mm 1 mps 754 mmHg 57%
    09:00 +1°C° 0 mm 1 mps 754 mmHg 52%
    10:00 +2°C° 0 mm 2 mps 754 mmHg 47%
    11:00 +3°C° 0 mm 2 mps 754 mmHg 47%
    12:00 +4°C° 0 mm 2 mps 753 mmHg 48%
    13:00 +4°C° 0 mm 3 mps 752 mmHg 49%
    14:00 +5°C° 0 mm 2 mps 752 mmHg 55%
    15:00 +4°C° 0 mm 2 mps 752 mmHg 62%
    16:00 +5°C° 0 mm 1 mps 752 mmHg 68%
    17:00 +4°C° 0 mm 1 mps 752 mmHg 74%
    18:00 +3°C° 0 mm 1 mps 752 mmHg 79%
    19:00 +2°C° 0 mm 1 mps 752 mmHg 84%
    20:00 +2°C° 0 mm 1 mps 752 mmHg 85%
    21:00 +1°C° 0 mm 1 mps 752 mmHg 86%
    22:00 +1°C° 0 mm 1 mps 752 mmHg 87%
    23:00 +1°C° 0 mm 1 mps 752 mmHg 88%

    Day after tomorrow, 20 December, Thursday

    Time Temperature Precipitation Wind Pressure Humidity
    00:00 +1°C° 0 mm 1 mps 752 mmHg 88%
    01:00 +1°C° 0 mm 1 mps 752 mmHg 88%
    02:00 +1°C° 0 mm 1 mps 752 mmHg 89%
    03:00 +1°C° 0 mm 1 mps 752 mmHg 90%
    04:00 0°C° 0 mm 0 mps 752 mmHg 90%
    05:00 0°C° 0 mm 0 mps 752 mmHg 91%
    06:00 0°C° 0 mm 0 mps 752 mmHg 91%
    07:00 0°C° 0 mm 0 mps 752 mmHg 91%
    08:00 +1°C° 0 mm 0 mps 752 mmHg 87%
    09:00 +4°C° 0 mm 1 mps 752 mmHg 83%
    10:00 +5°C° 0 mm 1 mps 752 mmHg 79%
    11:00 +6°C° 0 mm 1 mps 752 mmHg 80%
    12:00 +7°C° 0 mm 1 mps 751 mmHg 82%
    13:00 +7°C° 0 mm 1 mps 751 mmHg 83%
    14:00 +7°C° 0.2 mm 1 mps 750 mmHg 87%
    15:00 +6°C° 0.2 mm 1 mps 750 mmHg 91%
    16:00 +6°C° 0.2 mm 1 mps 749 mmHg 95%
    17:00 +5°C° 1.4 mm 2 mps 749 mmHg 95%
    18:00 +5°C° 1.4 mm 2 mps 749 mmHg 96%
    19:00 +5°C° 1.4 mm 2 mps 749 mmHg 97%
    20:00 +5°C° 2.3 mm 3 mps 748 mmHg 97%
    21:00 +7°C° 2.3 mm 3 mps 747 mmHg 97%
    22:00 +7°C° 2.3 mm 3 mps 747 mmHg 97%
    23:00 +7°C° 2.1 mm 4 mps 745 mmHg 97%

    21 December, Friday

    Time Temperature Precipitation Wind Pressure Humidity
    00:00 +8°C° 2.1 mm 4 mps 744 mmHg 97%
    01:00 +8°C° 2.1 mm 4 mps 742 mmHg 97%
    02:00 +9°C° 2.1 mm 5 mps 740 mmHg 96%
    03:00 +9°C° 2.1 mm 5 mps 739 mmHg 96%
    04:00 +10°C° 2.1 mm 5 mps 737 mmHg 95%
    05:00 +10°C° 1.1 mm 5 mps 737 mmHg 96%
    06:00 +11°C° 1.1 mm 4 mps 736 mmHg 96%
    07:00 +11°C° 1.1 mm 3 mps 735 mmHg 97%
    08:00 +11°C° 0.2 mm 3 mps 735 mmHg 97%
    09:00 +12°C° 0.2 mm 2 mps 735 mmHg 98%
    10:00 +12°C° 0.2 mm 2 mps 735 mmHg 98%
    11:00 +12°C° 0.2 mm 2 mps 734 mmHg 98%
    12:00 +13°C° 0.2 mm 2 mps 734 mmHg 98%
    13:00 +14°C° 0.2 mm 2 mps 733 mmHg 98%
    14:00 +14°C° 0.4 mm 2 mps 733 mmHg 98%
    15:00 +13°C° 0.4 mm 3 mps 732 mmHg 97%
    16:00 +14°C° 0.4 mm 3 mps 732 mmHg 97%
    17:00 +14°C° 0.7 mm 3 mps 732 mmHg 96%
    18:00 +13°C° 0.7 mm 3 mps 732 mmHg 96%
    19:00 +13°C° 0.7 mm 4 mps 732 mmHg 95%
    20:00 +12°C° 0 mm 3 mps 732 mmHg 95%
    21:00 +12°C° 0 mm 3 mps 732 mmHg 95%
    22:00 +11°C° 0 mm 3 mps 732 mmHg 95%
    23:00 +10°C° 0 mm 3 mps 732 mmHg 95%

    22 December, Saturday

    Time Temperature Precipitation Wind Pressure Humidity
    00:00 +10°C° 0 mm 2 mps 731 mmHg 96%
    01:00 +9°C° 0 mm 2 mps 731 mmHg 97%
    02:00 +9°C° 0.2 mm 2 mps 731 mmHg 96%
    03:00 +9°C° 0.2 mm 2 mps 731 mmHg 96%
    04:00 +9°C° 0.2 mm 3 mps 731 mmHg 95%
    05:00 +7°C° 0.4 mm 4 mps 732 mmHg 92%
    06:00 +7°C° 0.4 mm 5 mps 733 mmHg 88%
    07:00 +5°C° 0.4 mm 6 mps 734 mmHg 85%
    08:00 +5°C° 0 mm 6 mps 735 mmHg 81%
    09:00 +5°C° 0 mm 7 mps 736 mmHg 76%
    10:00 +5°C° 0 mm 7 mps 737 mmHg 72%
    11:00 +5°C° 0 mm 7 mps 737 mmHg 70%
    12:00 +5°C° 0 mm 7 mps 738 mmHg 69%
    13:00 +5°C° 0 mm 7 mps 738 mmHg 68%
    14:00 +4°C° 0 mm 7 mps 739 mmHg 68%
    15:00 +4°C° 0 mm 7 mps 740 mmHg 69%
    16:00 +4°C° 0 mm 6 mps 741 mmHg 69%
    17:00 +3°C° 0 mm 6 mps 743 mmHg 69%
    18:00 +2°C° 0 mm 6 mps 744 mmHg 69%
    19:00 +2°C° 0 mm 5 mps 745 mmHg 69%
    20:00 +1°C° 0 mm 5 mps 745 mmHg 71%
    21:00 0°C° 0 mm 5 mps 746 mmHg 72%
    22:00 0°C° 0 mm 5 mps 747 mmHg 73%
    23:00 -1°C° 0 mm 4 mps 747 mmHg 74%

    23 December, Sunday

    Time Temperature Precipitation Wind Pressure Humidity
    00:00 -1°C° 0 mm 4 mps 747 mmHg 74%
    01:00 -1°C° 0 mm 4 mps 748 mmHg 75%
    02:00 -1°C° 0 mm 4 mps 748 mmHg 76%
    03:00 -1°C° 0 mm 4 mps 748 mmHg 76%
    04:00 -1°C° 0 mm 4 mps 748 mmHg 77%
    05:00 -1°C° 0 mm 4 mps 749 mmHg 78%
    06:00 -1°C° 0 mm 4 mps 749 mmHg 79%
    07:00 -1°C° 0 mm 4 mps 749 mmHg 80%
    08:00 0°C° 0 mm 4 mps 750 mmHg 75%
    09:00 +1°C° 0 mm 5 mps 750 mmHg 70%
    10:00 +3°C° 0 mm 5 mps 750 mmHg 65%
    11:00 +3°C° 0 mm 5 mps 750 mmHg 63%
    12:00 +5°C° 0 mm 5 mps 750 mmHg 60%
    13:00 +5°C° 0 mm 5 mps 750 mmHg 57%
    14:00 +5°C° 0 mm 5 mps 750 mmHg 60%
    15:00 +4°C° 0 mm 4 mps 750 mmHg 62%
    16:00 +3°C° 0 mm 3 mps 750 mmHg 65%
    17:00 +2°C° 0 mm 3 mps 751 mmHg 68%
    18:00 +1°C° 0 mm 3 mps 751 mmHg 71%
    19:00 +1°C° 0 mm 2 mps 752 mmHg 74%
    20:00 0°C° 0 mm 3 mps 752 mmHg 75%
    21:00 0°C° 0 mm 3 mps 752 mmHg 75%
    22:00 0°C° 0 mm 3 mps 752 mmHg 75%
    23:00 0°C° 0 mm 3 mps 752 mmHg 74%
    Show more